KN4JGH Weather Reports


Display with metric or nautical units.
time (UTC)temp
F
wind
direction
speed
MPH
gust
MPH
rain 1hr
in
rain 24hr
in
rain mn
in
humidity
%
barometer
mb
20260906022314 83 353 0.0 2.0 0.00 0.00 0.00 77 1012.2
20260906021349 83 353 2.0 2.0 0.00 0.00 0.00 75 1012.1
20260906020325 84 353 0.0 2.0 0.00 0.00 0.00 74 1012.1
20260906015325 85 353 1.0 3.0 0.00 0.00 0.00 71 1011.8
20260906014320 86 14 2.0 4.0 0.00 0.00 0.00 70 1011.7
20260906013316 85 210 2.0 8.0 0.00 0.00 0.00 70 1011.8
20260906012315 84 119 2.0 4.0 0.00 0.00 0.00 76 1011.9
20260906011330 84 350 0.0 1.0 0.00 0.00 0.00 77 1011.7
20260906010326 84 350 0.0 2.0 0.00 0.00 0.00 77 1011.8
20260906005339 84 350 1.0 2.0 0.00 0.00 0.00 77 1011.8
20260906004317 85 350 1.0 2.0 0.00 0.00 0.00 76 1011.7
20260906003313 85 350 1.0 2.0 0.00 0.00 0.00 75 1011.6
20260906002329 86 350 1.0 2.0 0.00 0.00 0.00 74 1011.5
20260906001328 87 350 1.0 2.0 0.00 0.00 0.00 72 1011.4
20260906000326 88 350 1.0 3.0 0.00 0.00 0.00 70 1011.4
20260905235319 89 34 1.0 2.0 0.00 0.00 0.00 67 1011.4
20260905234351 90 34 1.0 3.0 0.00 0.00 0.00 66 1011.4
20260905233350 92 15 1.0 4.0 0.00 0.00 0.00 64 1011.5
20260905232325 93 29 1.0 3.0 0.00 0.00 0.00 60 1011.4
20260905231320 95 14 2.0 4.0 0.00 0.00 0.00 56 1011.4
20260905230336 96 350 2.0 4.0 0.00 0.00 0.00 53 1011.2
20260905225315 97 42 3.0 5.0 0.00 0.00 0.00 51 1011.4
20260905224329 98 24 3.0 6.0 0.00 0.00 0.00 49 1011.4
20260905223325 98 24 3.0 8.0 0.00 0.00 0.00 48 1011.6
20260905222325 99 29 3.0 5.0 0.00 0.00 0.00 46 1011.6
20260905221320 100 46 3.0 6.0 0.00 0.00 0.00 45 1011.4
20260905220316 99 34 3.0 6.0 0.00 0.00 0.00 45 1011.5
20260905215317 100 356 3.0 7.0 0.00 0.00 0.00 42 1011.6
20260905214332 101 53 4.0 7.0 0.00 0.00 0.00 43 1011.6
20260905213347 102 264 2.0 9.0 0.00 0.00 0.00 42 1011.7
20260905212340 102 324 3.0 6.0 0.00 0.00 0.00 42 1011.7
20260905211352 101 46 1.0 9.0 0.00 0.00 0.00 43 1011.7
20260905210330 102 46 3.0 10.0 0.00 0.00 0.00 43 1011.9
20260905205325 102 325 4.0 9.0 0.00 0.00 0.00 45 1011.9
20260905204340 102 24 5.0 8.0 0.00 0.00 0.00 45 1012.0
20260905203319 101 317 3.0 8.0 0.00 0.00 0.00 43 1012.2
20260905202316 101 359 4.0 8.0 0.00 0.00 0.00 46 1012.4
20260905201351 100 47 2.0 10.0 0.00 0.00 0.00 49 1012.5
20260905200326 101 29 3.0 9.0 0.00 0.00 0.00 47 1012.7
20260905195325 101 308 5.0 10.0 0.00 0.00 0.00 47 1012.8
20260905194319 100 250 4.0 8.0 0.00 0.00 0.00 46 1012.9
20260905193315 99 268 1.0 8.0 0.00 0.00 0.00 48 1013.1
20260905192315 100 348 4.0 8.0 0.00 0.00 0.00 48 1013.1
20260905191329 100 75 3.0 9.0 0.00 0.00 0.00 51 1013.3
20260905190325 99 78 3.0 8.0 0.00 0.00 0.00 53 1013.6
20260905185320 98 94 2.0 6.0 0.00 0.00 0.00 53 1013.7
20260905184316 98 323 2.0 8.0 0.00 0.00 0.00 48 1013.8
20260905183312 98 60 1.0 7.0 0.00 0.00 0.00 51 1014.1
20260905182348 98 9 4.0 8.0 0.00 0.00 0.00 50 1014.1
20260905181322 97 45 5.0 10.0 0.00 0.00 0.00 52 1014.3
20260905180322 98 240 1.0 4.0 0.00 0.00 0.00 53 1014.3
20260905175317 96 358 2.0 9.0 0.00 0.00 0.00 56 1014.4
20260905174332 97 67 4.0 10.0 0.00 0.00 0.00 56 1014.5
20260905173352 95 356 4.0 9.0 0.00 0.00 0.00 57 1014.5
20260905172327 95 61 3.0 9.0 0.00 0.00 0.00 58 1014.5
20260905171322 95 159 1.0 4.0 0.00 0.00 0.00 59 1014.7
20260905170338 94 90 2.0 6.0 0.00 0.00 0.00 60 1014.7
20260905165336 94 236 2.0 8.0 0.00 0.00 0.00 61 1014.8
20260905164329 93 15 1.0 4.0 0.00 0.00 0.00 63 1015.0
20260905163325 92 29 2.0 6.0 0.00 0.00 0.00 63 1015.2
20260905162320 93 44 3.0 5.0 0.00 0.00 0.00 63 1015.3
20260905161320 91 91 4.0 6.0 0.00 0.00 0.00 65 1015.3
20260905160335 90 86 2.0 6.0 0.00 0.00 0.00 67 1015.3
20260905155327 90 51 3.0 6.0 0.00 0.00 0.00 68 1015.5
20260905154341 89 298 2.0 5.0 0.00 0.00 0.00 69 1015.5
20260905153341 88 95 3.0 5.0 0.00 0.00 0.00 72 1015.6
20260905152316 88 48 1.0 4.0 0.00 0.00 0.00 71 1015.5
20260905151350 86 40 2.0 6.0 0.00 0.00 0.00 73 1015.6
20260905150325 85 43 3.0 5.0 0.00 0.00 0.00 73 1015.7
20260905145325 84 223 0.0 2.0 0.00 0.00 0.00 78 1015.7
20260905144318 84 223 0.0 1.0 0.00 0.00 0.00 81 1015.8
20260905143314 83 223 0.0 3.0 0.00 0.00 0.00 81 1015.8
20260905142332 82 252 1.0 3.0 0.00 0.00 0.00 82 1015.8
20260905141326 80 327 0.0 0.0 0.00 0.00 0.00 84 1015.8
20260905140343 80 327 0.0 0.0 0.00 0.00 0.00 87 1015.8
20260905135317 79 327 1.0 2.0 0.00 0.00 0.00 87 1015.9
20260905134336 78 43 0.0 0.0 0.00 0.00 0.00 89 1015.9
20260905133351 78 43 0.0 0.0 0.00 0.00 0.00 90 1015.9
20260905132326 77 43 0.0 0.0 0.00 0.00 0.00 92 1015.9
20260905131320 76 43 0.0 0.0 0.00 0.00 0.00 93 1016.0
20260905130320 76 43 0.0 0.0 0.00 0.00 0.00 94 1015.9
20260905125315 75 43 0.0 0.0 0.00 0.00 0.00 94 1015.9
20260905124330 75 43 0.0 0.0 0.00 0.00 0.00 93 1016.0
20260905123331 74 43 0.0 0.0 0.00 0.00 0.00 93 1016.1
20260905122327 74 43 0.0 0.0 0.00 0.00 0.00 93 1015.8
20260905121322 73 43 0.0 0.0 0.00 0.00 0.00 92 1015.6
20260905120339 73 43 0.0 0.0 0.00 0.00 0.00 92 1015.4
20260905115316 73 43 0.0 0.0 0.00 0.00 0.00 92 1015.4
20260905114329 73 43 0.0 0.0 0.00 0.00 0.00 92 1015.2
20260905113326 73 43 0.0 0.0 0.00 0.00 0.00 92 1015.1
20260905112325 73 43 0.0 2.0 0.00 0.00 0.00 92 1015.1
20260905111319 73 43 1.0 2.0 0.00 0.00 0.00 92 1014.9
20260905110335 73 43 0.0 0.0 0.00 0.00 0.00 92 1014.8
20260905105329 73 43 0.0 0.0 0.00 0.00 0.00 92 1014.6
20260905104328 73 43 0.0 1.0 0.00 0.00 0.00 91 1014.6
20260905103324 73 43 1.0 3.0 0.00 0.00 0.00 91 1014.6
20260905102320 73 343 0.0 0.0 0.00 0.00 0.00 91 1014.5
20260905101318 73 343 0.0 0.0 0.00 0.00 0.00 91 1014.4
20260905100314 73 343 0.0 0.0 0.00 0.00 0.00 91 1014.2
20260905095330 73 343 0.0 0.0 0.00 0.00 0.00 91 1014.3
20260905094325 73 343 0.0 0.0 0.00 0.00 0.00 91 1014.1
20260905093325 73 343 0.0 0.0 0.00 0.00 0.00 92 1014.2
20260905092320 74 343 0.0 0.0 0.00 0.00 0.00 92 1014.3
20260905091315 74 343 0.0 0.0 0.00 0.00 0.00 92 1014.3
20260905090315 74 343 0.0 0.0 0.00 0.00 0.00 92 1014.2
20260905085329 74 19 0.0 0.0 0.00 0.00 0.00 92 1014.3
20260905084324 74 19 0.0 1.0 0.00 0.00 0.00 92 1014.2
20260905083323 74 19 0.0 1.0 0.00 0.00 0.00 92 1014.3
20260905082317 74 19 0.0 0.0 0.00 0.00 0.00 91 1014.3
20260905081332 74 19 0.0 1.0 0.00 0.00 0.00 91 1014.3
20260905080328 74 19 1.0 2.0 0.00 0.00 0.00 91 1014.3
20260905075328 74 19 0.0 0.0 0.00 0.00 0.00 91 1014.3
20260905074322 74 19 0.0 1.0 0.00 0.00 0.00 90 1014.3
20260905073319 74 19 0.0 0.0 0.00 0.00 0.00 90 1014.4
20260905072318 74 19 0.0 0.0 0.00 0.00 0.00 90 1014.3
20260905071334 74 19 1.0 4.0 0.00 0.00 0.00 90 1014.4
20260905070349 74 340 0.0 0.0 0.00 0.00 0.00 90 1014.3
20260905065323 74 340 0.0 0.0 0.00 0.00 0.00 89 1014.5
20260905064322 75 340 0.0 0.0 0.00 0.00 0.00 89 1014.5
20260905063318 75 340 0.0 0.0 0.00 0.00 0.00 88 1014.4
20260905062314 76 340 0.0 0.0 0.00 0.00 0.00 87 1014.5
20260905061328 76 340 0.0 0.0 0.00 0.00 0.00 88 1014.6
20260905060346 76 340 0.0 1.0 0.00 0.00 0.00 88 1014.4
20260905055319 75 340 0.0 2.0 0.00 0.00 0.00 89 1014.5
20260905054332 75 340 0.0 1.0 0.00 0.00 0.00 89 1014.5
20260905053346 76 340 1.0 2.0 0.00 0.00 0.00 88 1014.5
20260905052324 76 340 0.0 1.0 0.00 0.00 0.00 87 1014.7
20260905051318 76 340 1.0 2.0 0.00 0.00 0.00 87 1014.7
20260905050315 77 340 0.0 1.0 0.00 0.00 0.00 86 1014.7
20260905045314 77 340 0.0 1.0 0.00 0.00 0.00 86 1014.7
20260905044328 76 340 0.0 2.0 0.00 0.00 0.00 88 1014.7
20260905043344 76 340 0.0 0.0 0.00 0.00 0.00 87 1014.8
20260905042319 76 340 0.0 2.0 0.00 0.00 0.00 87 1014.8
20260905041317 77 340 0.0 1.0 0.00 0.00 0.00 87 1014.7
20260905040312 77 340 1.0 2.0 0.00 0.00 0.00 86 1014.8
20260905035328 77 340 1.0 2.0 0.00 0.00 0.00 86 1014.9
20260905034324 77 340 0.0 0.0 0.00 0.00 0.00 85 1015.1
20260905033321 77 340 0.0 2.0 0.00 0.00 0.00 85 1015.1
20260905032317 78 340 1.0 1.0 0.00 0.00 0.00 84 1015.1
20260905031351 78 340 0.0 1.0 0.00 0.00 0.00 84 1015.2
20260905030330 79 340 0.0 1.0 0.00 0.00 0.00 83 1015.2
20260905025325 79 340 1.0 2.0 0.00 0.00 0.00 83 1015.2
20260905024340 79 340 0.0 1.0 0.00 0.00 0.00 82 1015.3
20260905023320 79 340 0.0 1.0 0.00 0.00 0.00 82 1015.4